Location: Dumpton Point
(51.3500°N, 1.4433°E)
Time: 23:29:43
(UTC+00:00)

Tiros 1 despin weight - Pass Details

Date: 26 April 2021
Orbit: 593 x 642 km, 48.2° (Epoch: 07 May)

Event Time Altitude Azimuth Distance (km) Brightness Sun altitude
Exits shadow 02:04:47 14° 149° (SSE) 1,773 ? -19.0°
Maximum altitude 02:05:22 14° 140° (SE) 1,756 ? -18.9°
Drops below altitude 10° 02:07:45 10° 109° (ESE) 2,006 ? -18.7°
Sets 02:11:03 0° 84° (E) 2,906 ? -18.4°
